Torna al catalogo

COSMOS 2251 DEB

AttivoLEO
NORAD 37967·DEBRIS·🇷🇺 Russia

Lanciato Jun 16, 1993 da Plesetsk Cosmodrome

Loading…

Prossimi Passaggi (prossime 24 ore)

TLE

AggiornatoSource: Space-Track

Epoca: Sep 14, 2026, 05:34 UTC

1 37967U 93036BPS 26257.23224216  .00001863  00000-0  50062-3 0  9991
2 37967  74.0160 345.9538 0145852  57.5530 303.9634 14.42640532687065

Traccia COSMOS 2251 DEB in tempo reale con AllMySat

Download on the App Store